Forside
METAR-TAF:

METAR-TAF

Lufthavne :

Lawrence J. Timmerman Airport

Milwaukee, Wisconsin, USA

Breddekreds: 43-07N, længdekreds: 088-02W, højde: 227 m

Aktuelle vejr

Denne rapport blev lavet for 33 minutter siden, kl. 02:35 UTC
Vind 3 kt fra sydøst
Temperatur 20°C
Fugtighed 73%
Tryk 1013 hPa
Sigt: 16.1 km
skyfri

METAR: KMWC 250235Z AUTO 13003KT 10SM CLR 20/15 A2992 RMK AO2

Tid: 22:08 (03:08 UTC)


TAF: fraværende

Vejrobservationer og prognoser fra mere end 4000 lufthavne (METAR og TAF).

De gule og røde prikker repræsenterer de meteorologiske stationer.

Flyt musen over at se navnet på stationen.

Så klik over at se vejr observationer og prognoser.

At skifte det kort: Klik på de grønne knapper med et sort kors for at zoome ind; på den grønne knap med en bindestreg for at zoome ud; eller på de grønne pile for tilstødende kort.


METAR-TAF: